Time,TemperatureF,DewpointF,PressureIn,WindDirection,WindDirectionDegrees,WindSpeedMPH,WindSpeedGustMPH,Humidity,HourlyPrecipIn,Conditions,Clouds,dailyrainin,SoftwareType,DateUTC
2013-07-13 00:02:00,56.6,49.5,29.83,South,172,4.0,8.0,77,0.00,,BKN001,0.01,VWS V14.00,2013-07-13 06:02:00,
2013-07-13 00:07:00,55.9,49.2,29.84,SSE,155,5.0,8.0,78,0.00,,BKN001,0.00,VWS V14.00,2013-07-13 06:07:00,
2013-07-13 00:12:00,56.2,49.1,29.84,SE,143,2.0,9.0,77,0.00,,BKN001,0.00,VWS V14.00,2013-07-13 06:12:00,
2013-07-13 00:17:00,55.7,48.6,29.84,South,176,5.0,9.0,77,0.00,,BKN001,0.00,VWS V14.00,2013-07-13 06:17:00,
2013-07-13 00:22:00,54.8,48.4,29.84,SSW,195,4.0,9.0,79,0.00,,BKN001,0.00,VWS V14.00,2013-07-13 06:22:00,
2013-07-13 00:27:00,54.2,48.5,29.84,SSW,200,1.0,9.0,81,0.00,,BKN001,0.00,VWS V14.00,2013-07-13 06:27:00,
2013-07-13 00:32:00,53.7,48.3,29.85,SSW,200,4.0,9.0,82,0.00,,BKN001,0.00,VWS V14.00,2013-07-13 06:32:00,
2013-07-13 00:36:00,52.9,47.9,29.85,SSW,201,5.0,6.0,83,0.00,,BKN001,0.00,VWS V14.00,2013-07-13 06:36:00,
2013-07-13 00:42:00,53.0,48.3,29.84,South,172,6.0,7.0,84,0.00,,BKN001,0.00,VWS V14.00,2013-07-13 06:42:00,
2013-07-13 00:46:00,53.3,48.3,29.84,South,172,2.0,7.0,83,0.00,,BKN001,0.00,VWS V14.00,2013-07-13 06:46:00,
2013-07-13 00:51:00,53.4,48.4,29.85,South,172,4.0,7.0,83,0.00,,BKN001,0.00,VWS V14.00,2013-07-13 06:51:00,
2013-07-13 00:56:00,53.0,48.3,29.85,South,179,5.0,7.0,84,0.00,,BKN001,0.00,VWS V14.00,2013-07-13 06:56:00,
2013-07-13 01:01:00,52.8,48.1,29.85,South,180,3.0,7.0,84,0.00,,BKN001,0.00,VWS V14.00,2013-07-13 07:01:00,
2013-07-13 01:06:00,52.2,47.5,29.85,South,181,4.0,5.0,84,0.00,,BKN001,0.00,VWS V14.00,2013-07-13 07:06:00,
2013-07-13 01:11:00,52.8,48.1,29.85,SSE,153,3.0,6.0,84,0.00,,BKN001,0.00,VWS V14.00,2013-07-13 07:11:00,
2013-07-13 01:16:00,53.3,48.3,29.85,SE,146,4.0,7.0,83,0.00,,BKN001,0.00,VWS V14.00,2013-07-13 07:16:00,
2013-07-13 01:21:00,53.3,48.3,29.85,SSE,164,5.0,7.0,83,0.00,,BKN001,0.00,VWS V14.00,2013-07-13 07:21:00,
2013-07-13 01:26:00,53.0,48.0,29.85,SSW,211,3.0,8.0,83,0.00,,BKN001,0.00,VWS V14.00,2013-07-13 07:26:00,
2013-07-13 01:31:00,52.5,47.8,29.85,SSW,205,7.0,10.0,84,0.00,,BKN001,0.00,VWS V14.00,2013-07-13 07:31:00,
2013-07-13 01:36:00,52.2,47.8,29.85,SSE,149,6.0,7.0,85,0.00,,BKN001,0.00,VWS V14.00,2013-07-13 07:36:00,
2013-07-13 01:41:00,52.4,47.7,29.85,South,169,6.0,8.0,84,0.00,,BKN001,0.00,VWS V14.00,2013-07-13 07:41:00,
2013-07-13 01:46:00,51.8,47.1,29.85,South,174,4.0,8.0,84,0.00,,BKN001,0.00,VWS V14.00,2013-07-13 07:46:00,
2013-07-13 01:51:00,51.3,47.3,29.85,WSW,243,5.0,8.0,86,0.00,,BKN001,0.00,VWS V14.00,2013-07-13 07:51:00,
2013-07-13 01:56:00,51.4,47.4,29.85,SW,216,4.0,8.0,86,0.00,,BKN001,0.00,VWS V14.00,2013-07-13 07:56:00,
2013-07-13 02:01:00,51.3,47.3,29.85,ESE,113,5.0,8.0,86,0.00,,BKN001,0.00,VWS V14.00,2013-07-13 08:01:00,
2013-07-13 02:06:00,51.6,47.2,29.85,SE,144,4.0,7.0,85,0.00,,BKN001,0.00,VWS V14.00,2013-07-13 08:06:00,
2013-07-13 02:11:00,51.6,47.2,29.85,SSE,154,3.0,7.0,85,0.00,,BKN001,0.00,VWS V14.00,2013-07-13 08:11:00,
2013-07-13 02:16:00,51.7,47.3,29.85,SSW,198,5.0,7.0,85,0.00,,BKN001,0.00,VWS V14.00,2013-07-13 08:16:00,
2013-07-13 02:21:00,51.6,47.6,29.85,SW,217,1.0,8.0,86,0.00,,BKN001,0.00,VWS V14.00,2013-07-13 08:21:00,
2013-07-13 02:26:00,51.5,47.5,29.85,SW,226,6.0,8.0,86,0.00,,BKN001,0.00,VWS V14.00,2013-07-13 08:26:00,
2013-07-13 02:31:00,51.5,47.5,29.85,SSW,210,5.0,8.0,86,0.00,,BKN001,0.00,VWS V14.00,2013-07-13 08:31:00,
2013-07-13 02:36:00,51.8,47.8,29.85,WSW,245,6.0,9.0,86,0.00,,BKN001,0.00,VWS V14.00,2013-07-13 08:36:00,
2013-07-13 02:41:00,52.0,48.0,29.85,SW,222,8.0,11.0,86,0.00,,BKN001,0.00,VWS V14.00,2013-07-13 08:41:00,
2013-07-13 02:46:00,52.1,47.7,29.85,WSW,238,9.0,11.0,85,0.00,,BKN001,0.00,VWS V14.00,2013-07-13 08:46:00,
2013-07-13 02:51:00,52.1,47.7,29.85,South,191,5.0,11.0,85,0.00,,BKN001,0.00,VWS V14.00,2013-07-13 08:51:00,
2013-07-13 02:56:00,52.0,47.6,29.85,SSW,193,0.0,11.0,85,0.00,,BKN001,0.00,VWS V14.00,2013-07-13 08:56:00,
2013-07-13 03:01:00,52.0,47.6,29.85,SSE,165,2.0,11.0,85,0.00,,BKN001,0.00,VWS V14.00,2013-07-13 09:01:00,
2013-07-13 03:06:00,51.7,47.3,29.85,SSE,163,1.0,5.0,85,0.00,,BKN001,0.00,VWS V14.00,2013-07-13 09:06:00,
2013-07-13 03:11:00,51.3,47.3,29.85,South,174,5.0,6.0,86,0.00,,BKN001,0.00,VWS V14.00,2013-07-13 09:11:00,
2013-07-13 03:16:00,50.9,47.2,29.85,SSW,198,5.0,7.0,87,0.00,,BKN001,0.00,VWS V14.00,2013-07-13 09:16:00,
2013-07-13 03:21:00,50.6,47.2,29.85,SSW,212,4.0,7.0,88,0.00,,BKN001,0.00,VWS V14.00,2013-07-13 09:21:00,
2013-07-13 03:26:00,50.4,47.0,29.85,SSW,203,3.0,7.0,88,0.00,,BKN001,0.00,VWS V14.00,2013-07-13 09:26:00,
2013-07-13 03:31:00,50.9,47.5,29.85,SSE,153,5.0,7.0,88,0.00,,BKN001,0.00,VWS V14.00,2013-07-13 09:31:00,
2013-07-13 03:36:00,51.3,47.6,29.85,SSE,153,2.0,5.0,87,0.00,,BKN001,0.00,VWS V14.00,2013-07-13 09:36:00,
2013-07-13 03:41:00,50.9,47.2,29.85,SSW,194,4.0,5.0,87,0.00,,BKN001,0.00,VWS V14.00,2013-07-13 09:41:00,
2013-07-13 03:46:00,50.6,47.2,29.85,SSW,202,4.0,6.0,88,0.00,,BKN001,0.00,VWS V14.00,2013-07-13 09:46:00,
2013-07-13 03:51:00,50.5,47.1,29.85,SSW,200,3.0,6.0,88,0.00,,BKN001,0.00,VWS V14.00,2013-07-13 09:51:00,
2013-07-13 03:56:00,50.5,47.1,29.85,SSW,203,4.0,6.0,88,0.00,,BKN001,0.00,VWS V14.00,2013-07-13 09:56:00,
2013-07-13 04:01:00,50.5,47.1,29.85,South,186,5.0,7.0,88,0.00,,BKN001,0.00,VWS V14.00,2013-07-13 10:01:00,
2013-07-13 04:06:00,50.4,47.0,29.85,South,172,5.0,5.0,88,0.00,,BKN001,0.00,VWS V14.00,2013-07-13 10:06:00,
2013-07-13 04:11:00,50.3,47.2,29.86,SSW,208,3.0,5.0,89,0.00,,BKN001,0.00,VWS V14.00,2013-07-13 10:11:00,
2013-07-13 04:16:00,50.4,47.3,29.86,WSW,245,5.0,6.0,89,0.00,,BKN001,0.00,VWS V14.00,2013-07-13 10:16:00,
2013-07-13 04:21:00,50.7,47.6,29.86,SW,217,0.0,6.0,89,0.00,,BKN001,0.00,VWS V14.00,2013-07-13 10:21:00,
2013-07-13 04:26:00,50.4,47.0,29.85,SSE,151,0.0,6.0,88,0.00,,BKN001,0.00,VWS V14.00,2013-07-13 10:26:00,
2013-07-13 04:31:00,50.1,46.7,29.85,SSE,151,0.0,6.0,88,0.00,,BKN001,0.00,VWS V14.00,2013-07-13 10:31:00,
2013-07-13 04:36:00,49.9,46.8,29.85,SSE,150,0.0,1.0,89,0.00,,BKN001,0.00,VWS V14.00,2013-07-13 10:36:00,
2013-07-13 04:41:00,49.7,46.6,29.86,SSE,151,0.0,1.0,89,0.00,,BKN001,0.00,VWS V14.00,2013-07-13 10:41:00,
2013-07-13 04:46:00,49.5,46.4,29.86,ESE,117,3.0,4.0,89,0.00,,BKN001,0.00,VWS V14.00,2013-07-13 10:46:00,
2013-07-13 04:51:00,49.2,46.1,29.86,ESE,118,1.0,4.0,89,0.00,,BKN001,0.00,VWS V14.00,2013-07-13 10:51:00,
2013-07-13 04:56:00,49.1,46.3,29.86,ESE,120,2.0,4.0,90,0.00,,BKN001,0.00,VWS V14.00,2013-07-13 10:56:00,
2013-07-13 05:01:00,48.8,46.0,29.86,ESE,120,2.0,4.0,90,0.00,,BKN001,0.00,VWS V14.00,2013-07-13 11:01:00,
2013-07-13 05:06:00,48.7,45.9,29.86,SSE,148,5.0,5.0,90,0.00,,BKN001,0.00,VWS V14.00,2013-07-13 11:06:00,
2013-07-13 05:11:00,48.8,46.0,29.86,SSE,150,3.0,5.0,90,0.00,,BKN001,0.00,VWS V14.00,2013-07-13 11:11:00,
2013-07-13 05:16:00,48.7,45.9,29.86,SSE,163,1.0,5.0,90,0.00,,BKN001,0.00,VWS V14.00,2013-07-13 11:16:00,
2013-07-13 05:21:00,48.0,44.9,29.86,SSE,160,0.0,5.0,89,0.00,,BKN001,0.00,VWS V14.00,2013-07-13 11:21:00,
2013-07-13 05:26:00,47.7,44.9,29.86,South,179,4.0,5.0,90,0.00,,BKN001,0.00,VWS V14.00,2013-07-13 11:26:00,
2013-07-13 05:31:00,47.8,45.3,29.86,South,190,2.0,6.0,91,0.00,,BKN001,0.00,VWS V14.00,2013-07-13 11:31:00,
2013-07-13 05:36:00,47.7,45.2,29.86,South,190,4.0,5.0,91,0.00,,BKN001,0.00,VWS V14.00,2013-07-13 11:36:00,
2013-07-13 05:41:00,47.9,45.7,29.86,South,191,4.0,7.0,92,0.00,,BKN001,0.00,VWS V14.00,2013-07-13 11:41:00,
2013-07-13 05:46:00,47.7,45.5,29.86,SSE,167,4.0,7.0,92,0.00,,BKN001,0.00,VWS V14.00,2013-07-13 11:46:00,
2013-07-13 05:51:00,47.6,45.4,29.86,SSE,165,2.0,7.0,92,0.00,,BKN001,0.00,VWS V14.00,2013-07-13 11:51:00,
2013-07-13 05:56:00,47.6,45.4,29.87,SSE,163,0.0,7.0,92,0.00,,BKN001,0.00,VWS V14.00,2013-07-13 11:56:00,
2013-07-13 06:01:00,47.7,45.5,29.87,SSE,168,2.0,7.0,92,0.00,,BKN001,0.00,VWS V14.00,2013-07-13 12:01:00,
2013-07-13 06:06:00,47.6,45.4,29.87,SSE,165,0.0,5.0,92,0.00,,BKN001,0.00,VWS V14.00,2013-07-13 12:06:00,
2013-07-13 06:11:00,47.2,44.7,29.87,SSE,165,0.0,5.0,91,0.00,,BKN001,0.00,VWS V14.00,2013-07-13 12:11:00,
2013-07-13 06:16:00,47.0,44.8,29.87,SSE,165,3.0,5.0,92,0.00,,BKN001,0.00,VWS V14.00,2013-07-13 12:16:00,
2013-07-13 06:21:00,47.5,45.3,29.88,SE,135,4.0,6.0,92,0.00,,BKN001,0.00,VWS V14.00,2013-07-13 12:21:00,
2013-07-13 06:26:00,47.5,45.3,29.88,SE,136,2.0,6.0,92,0.00,,BKN001,0.00,VWS V14.00,2013-07-13 12:26:00,
2013-07-13 06:31:00,47.1,44.6,29.88,SE,136,3.0,6.0,91,0.00,,BKN001,0.00,VWS V14.00,2013-07-13 12:31:00,
2013-07-13 06:36:00,47.0,44.8,29.88,SE,136,0.0,4.0,92,0.00,,BKN001,0.00,VWS V14.00,2013-07-13 12:36:00,
2013-07-13 06:41:00,47.1,44.9,29.88,SE,137,0.0,4.0,92,0.00,,BKN001,0.00,VWS V14.00,2013-07-13 12:41:00,
2013-07-13 06:46:00,47.2,45.0,29.87,SE,137,2.0,4.0,92,0.00,,BKN001,0.00,VWS V14.00,2013-07-13 12:46:00,
2013-07-13 06:51:00,47.5,45.3,29.87,SE,136,3.0,5.0,92,0.00,,BKN001,0.00,VWS V14.00,2013-07-13 12:51:00,
2013-07-13 06:56:00,47.9,45.7,29.88,SE,137,2.0,5.0,92,0.00,,BKN001,0.00,VWS V14.00,2013-07-13 12:56:00,
2013-07-13 07:01:00,48.2,46.0,29.88,SSE,151,4.0,5.0,92,0.00,,BKN001,0.00,VWS V14.00,2013-07-13 13:01:00,
2013-07-13 07:06:00,48.3,46.1,29.88,SSE,158,5.0,6.0,92,0.00,,BKN001,0.00,VWS V14.00,2013-07-13 13:06:00,
2013-07-13 07:11:00,48.6,46.1,29.88,SW,221,5.0,7.0,91,0.00,,BKN001,0.00,VWS V14.00,2013-07-13 13:11:00,
2013-07-13 07:16:00,48.8,46.3,29.89,SSE,149,4.0,7.0,91,0.00,,BKN001,0.00,VWS V14.00,2013-07-13 13:16:00,
2013-07-13 07:21:00,49.1,46.6,29.88,SSE,150,2.0,7.0,91,0.00,,BKN001,0.00,VWS V14.00,2013-07-13 13:21:00,
2013-07-13 07:26:00,50.1,47.6,29.89,ENE,72,3.0,7.0,91,0.00,,BKN001,0.00,VWS V14.00,2013-07-13 13:26:00,
2013-07-13 07:31:00,51.3,48.5,29.89,ENE,67,0.0,7.0,90,0.00,,BKN001,0.00,VWS V14.00,2013-07-13 13:31:00,
2013-07-13 07:36:00,52.6,48.8,29.89,ENE,68,0.0,3.0,87,0.00,,BKN001,0.00,VWS V14.00,2013-07-13 13:36:00,
2013-07-13 07:41:00,52.5,47.8,29.88,ENE,68,0.0,3.0,84,0.00,,BKN001,0.00,VWS V14.00,2013-07-13 13:41:00,
2013-07-13 07:46:00,52.6,47.9,29.88,ENE,68,0.0,3.0,84,0.00,,BKN001,0.00,VWS V14.00,2013-07-13 13:46:00,
2013-07-13 07:51:00,52.8,48.1,29.89,ENE,72,0.0,3.0,84,0.00,,BKN001,0.00,VWS V14.00,2013-07-13 13:51:00,
2013-07-13 07:56:00,53.1,48.4,29.88,East,97,4.0,5.0,84,0.00,,BKN001,0.00,VWS V14.00,2013-07-13 13:56:00,
2013-07-13 08:01:00,53.9,49.2,29.89,SE,140,5.0,8.0,84,0.00,,BKN001,0.00,VWS V14.00,2013-07-13 14:01:00,
2013-07-13 08:06:00,54.2,48.8,29.89,SSE,155,5.0,9.0,82,0.00,,BKN001,0.00,VWS V14.00,2013-07-13 14:06:00,
2013-07-13 08:11:00,53.9,48.9,29.88,SW,219,7.0,9.0,83,0.00,,BKN001,0.00,VWS V14.00,2013-07-13 14:11:00,
2013-07-13 08:16:00,53.7,48.7,29.89,South,188,8.0,11.0,83,0.00,,BKN001,0.00,VWS V14.00,2013-07-13 14:16:00,
2013-07-13 08:21:00,53.7,48.7,29.88,South,180,7.0,11.0,83,0.00,,BKN001,0.00,VWS V14.00,2013-07-13 14:21:00,
2013-07-13 08:26:00,54.2,49.2,29.88,South,184,5.0,11.0,83,0.00,,BKN001,0.00,VWS V14.00,2013-07-13 14:26:00,
2013-07-13 08:31:00,55.1,49.4,29.88,South,170,2.0,11.0,81,0.00,,BKN001,0.00,VWS V14.00,2013-07-13 14:31:00,
2013-07-13 08:36:00,55.8,49.0,29.88,SSE,163,3.0,5.0,78,0.00,,BKN001,0.00,VWS V14.00,2013-07-13 14:36:00,
2013-07-13 08:41:00,56.3,49.5,29.88,South,173,1.0,8.0,78,0.00,,BKN001,0.00,VWS V14.00,2013-07-13 14:41:00,
2013-07-13 08:46:00,56.8,49.3,29.88,SSW,195,4.0,8.0,76,0.00,,BKN001,0.00,VWS V14.00,2013-07-13 14:46:00,
2013-07-13 08:51:00,57.2,49.4,29.88,SSE,150,5.0,8.0,75,0.00,,BKN001,0.00,VWS V14.00,2013-07-13 14:51:00,
2013-07-13 08:56:00,59.0,50.4,29.87,ESE,118,3.0,8.0,73,0.00,,BKN001,0.00,VWS V14.00,2013-07-13 14:56:00,
2013-07-13 09:01:00,59.3,49.1,29.87,SE,139,4.0,8.0,69,0.00,,BKN001,0.00,VWS V14.00,2013-07-13 15:01:00,
2013-07-13 09:06:00,59.5,49.3,29.87,SE,139,1.0,7.0,69,0.00,,BKN001,0.00,VWS V14.00,2013-07-13 15:06:00,
2013-07-13 09:11:00,59.1,49.3,29.87,SE,139,2.0,7.0,70,0.00,,BKN001,0.00,VWS V14.00,2013-07-13 15:11:00,
2013-07-13 09:16:00,59.0,48.9,29.86,South,184,2.0,7.0,69,0.00,,BKN001,0.00,VWS V14.00,2013-07-13 15:16:00,
2013-07-13 09:21:00,59.0,49.6,29.86,South,186,0.0,7.0,71,0.00,,BKN001,0.00,VWS V14.00,2013-07-13 15:21:00,
2013-07-13 09:26:00,59.8,49.2,29.86,SSW,213,5.0,7.0,68,0.00,,BKN001,0.00,VWS V14.00,2013-07-13 15:26:00,
2013-07-13 09:31:00,60.2,49.6,29.86,South,178,0.0,7.0,68,0.00,,BKN001,0.00,VWS V14.00,2013-07-13 15:31:00,
2013-07-13 09:36:00,61.4,50.8,29.85,SE,127,2.0,6.0,68,0.00,,BKN001,0.00,VWS V14.00,2013-07-13 15:36:00,
2013-07-13 09:41:00,62.6,50.3,29.85,SE,126,5.0,8.0,64,0.00,,BKN001,0.00,VWS V14.00,2013-07-13 15:41:00,
2013-07-13 09:46:00,63.2,50.0,29.85,South,175,0.0,8.0,62,0.00,,BKN001,0.00,VWS V14.00,2013-07-13 15:46:00,
2013-07-13 09:51:00,63.2,49.5,29.84,ENE,69,0.0,8.0,61,0.00,,BKN001,0.00,VWS V14.00,2013-07-13 15:51:00,
2013-07-13 09:56:00,63.8,49.7,29.84,South,169,4.0,8.0,60,0.00,,BKN001,0.00,VWS V14.00,2013-07-13 15:56:00,
2013-07-13 10:01:00,64.7,50.1,29.84,SE,135,2.0,8.0,59,0.00,,BKN001,0.00,VWS V14.00,2013-07-13 16:01:00,
2013-07-13 10:06:00,65.1,50.0,29.83,South,191,3.0,8.0,58,0.00,,BKN001,0.00,VWS V14.00,2013-07-13 16:06:00,
2013-07-13 10:11:00,65.8,49.7,29.83,ESE,116,3.0,8.0,56,0.00,,BKN001,0.00,VWS V14.00,2013-07-13 16:11:00,
2013-07-13 10:16:00,66.0,49.4,29.83,SE,136,1.0,8.0,55,0.00,,BKN001,0.00,VWS V14.00,2013-07-13 16:16:00,
2013-07-13 10:21:00,67.1,49.4,29.82,ESE,107,7.0,8.0,53,0.00,,BKN001,0.00,VWS V14.00,2013-07-13 16:21:00,
2013-07-13 10:26:00,68.8,50.0,29.82,SE,128,5.0,8.0,51,0.00,,BKN001,0.00,VWS V14.00,2013-07-13 16:26:00,
2013-07-13 10:31:00,69.2,49.8,29.82,SE,124,5.0,9.0,50,0.00,,BKN001,0.00,VWS V14.00,2013-07-13 16:31:00,
2013-07-13 10:36:00,69.9,49.9,29.82,SW,220,6.0,8.0,49,0.00,,BKN001,0.00,VWS V14.00,2013-07-13 16:36:00,
2013-07-13 10:41:00,68.1,48.8,29.82,South,184,4.0,13.0,50,0.00,,BKN001,0.00,VWS V14.00,2013-07-13 16:41:00,
2013-07-13 10:46:00,68.1,50.3,29.81,SSE,165,4.0,13.0,53,0.00,,BKN001,0.00,VWS V14.00,2013-07-13 16:46:00,
2013-07-13 10:51:00,69.2,50.3,29.81,ESE,113,8.0,13.0,51,0.00,,BKN001,0.00,VWS V14.00,2013-07-13 16:51:00,
2013-07-13 10:56:00,70.1,49.5,29.81,East,100,6.0,13.0,48,0.00,,BKN001,0.00,VWS V14.00,2013-07-13 16:56:00,
2013-07-13 11:01:00,70.7,48.9,29.81,ESE,103,6.0,13.0,46,0.00,,BKN001,0.00,VWS V14.00,2013-07-13 17:01:00,
2013-07-13 11:06:00,71.5,48.5,29.81,ENE,58,8.0,12.0,44,0.00,,BKN001,0.00,VWS V14.00,2013-07-13 17:06:00,
2013-07-13 11:11:00,73.0,49.8,29.80,ESE,115,8.0,12.0,44,0.00,,BKN001,0.00,VWS V14.00,2013-07-13 17:11:00,
2013-07-13 11:16:00,73.1,49.9,29.80,East,100,10.0,12.0,44,0.00,,BKN001,0.00,VWS V14.00,2013-07-13 17:16:00,
2013-07-13 11:21:00,73.0,49.8,29.80,ESE,118,7.0,12.0,44,0.00,,BKN001,0.00,VWS V14.00,2013-07-13 17:21:00,
2013-07-13 11:26:00,72.1,49.0,29.80,SSE,152,5.0,12.0,44,0.00,,BKN001,0.00,VWS V14.00,2013-07-13 17:26:00,
2013-07-13 11:31:00,71.7,48.7,29.80,ESE,108,2.0,12.0,44,0.00,,BKN001,0.00,VWS V14.00,2013-07-13 17:31:00,
2013-07-13 11:36:00,71.7,48.0,29.80,SE,144,0.0,8.0,43,0.00,,BKN001,0.00,VWS V14.00,2013-07-13 17:36:00,
2013-07-13 11:41:00,71.1,47.5,29.80,SSW,209,8.0,10.0,43,0.00,,BKN001,0.00,VWS V14.00,2013-07-13 17:41:00,
2013-07-13 11:46:00,70.3,47.4,29.80,SW,221,10.0,14.0,44,0.00,,BKN001,0.00,VWS V14.00,2013-07-13 17:46:00,
2013-07-13 11:51:00,70.4,48.1,29.79,WSW,255,9.0,16.0,45,0.00,,BKN001,0.00,VWS V14.00,2013-07-13 17:51:00,
2013-07-13 11:56:00,70.8,47.8,29.79,West,275,6.0,16.0,44,0.00,,BKN001,0.00,VWS V14.00,2013-07-13 17:56:00,
2013-07-13 12:01:00,71.4,47.8,29.79,SSW,209,3.0,16.0,43,0.00,,BKN001,0.00,VWS V14.00,2013-07-13 18:01:00,
2013-07-13 12:06:00,71.8,47.5,29.79,WSW,242,5.0,7.0,42,0.00,,BKN001,0.00,VWS V14.00,2013-07-13 18:06:00,
2013-07-13 12:11:00,71.1,48.1,29.78,SSE,158,5.0,9.0,44,0.00,,BKN001,0.00,VWS V14.00,2013-07-13 18:11:00,
2013-07-13 12:16:00,70.2,48.5,29.78,WSW,245,7.0,13.0,46,0.00,,BKN001,0.00,VWS V14.00,2013-07-13 18:16:00,
2013-07-13 12:21:00,69.5,47.8,29.79,SW,235,14.0,18.0,46,0.00,,BKN001,0.00,VWS V14.00,2013-07-13 18:21:00,
2013-07-13 12:26:00,68.1,46.0,29.80,West,259,13.0,24.0,45,0.00,,BKN001,0.00,VWS V14.00,2013-07-13 18:26:00,
2013-07-13 12:31:00,67.9,45.2,29.80,WSW,238,10.0,24.0,44,0.00,,BKN001,0.00,VWS V14.00,2013-07-13 18:31:00,
2013-07-13 12:36:00,67.0,48.8,29.80,SE,124,15.0,17.0,52,0.00,,BKN001,0.00,VWS V14.00,2013-07-13 18:36:00,
2013-07-13 12:41:00,64.3,50.1,29.80,SE,125,12.0,21.0,60,0.00,,BKN001,0.00,VWS V14.00,2013-07-13 18:41:00,
2013-07-13 12:46:00,64.5,50.3,29.80,ESE,120,12.0,21.0,60,0.00,,BKN001,0.00,VWS V14.00,2013-07-13 18:46:00,
2013-07-13 12:51:00,65.0,49.4,29.79,SE,139,14.0,21.0,57,0.00,,BKN001,0.00,VWS V14.00,2013-07-13 18:51:00,
2013-07-13 12:56:00,66.4,47.7,29.79,SE,136,11.0,21.0,51,0.00,,BKN001,0.00,VWS V14.00,2013-07-13 18:56:00,
2013-07-13 13:01:00,69.0,47.4,29.79,South,180,11.0,21.0,46,0.00,,BKN001,0.00,VWS V14.00,2013-07-13 19:01:00,
2013-07-13 13:06:00,69.8,48.7,29.79,ESE,119,7.0,11.0,47,0.00,,BKN001,0.00,VWS V14.00,2013-07-13 19:06:00,
2013-07-13 13:11:00,72.8,47.8,29.78,SSE,155,18.0,25.0,41,0.00,,BKN001,0.00,VWS V14.00,2013-07-13 19:11:00,
2013-07-13 13:16:00,72.2,45.9,29.79,South,190,12.0,25.0,39,0.00,,BKN001,0.00,VWS V14.00,2013-07-13 19:16:00,
2013-07-13 13:21:00,72.3,43.9,29.79,SSE,160,11.0,25.0,36,0.00,,BKN001,0.00,VWS V14.00,2013-07-13 19:21:00,
2013-07-13 13:26:00,72.6,45.6,29.79,SE,133,19.0,25.0,38,0.00,,BKN001,0.00,VWS V14.00,2013-07-13 19:26:00,
2013-07-13 13:31:00,71.7,45.5,29.79,SE,139,16.0,25.0,39,0.00,,BKN001,0.00,VWS V14.00,2013-07-13 19:31:00,
2013-07-13 13:36:00,70.8,46.0,29.79,South,169,15.0,19.0,41,0.00,,BKN001,0.00,VWS V14.00,2013-07-13 19:36:00,
2013-07-13 13:41:00,70.2,46.1,29.79,SE,142,11.0,19.0,42,0.00,,BKN001,0.00,VWS V14.00,2013-07-13 19:41:00,
2013-07-13 13:46:00,69.3,45.2,29.79,SW,216,11.0,19.0,42,0.00,,BKN001,0.00,VWS V14.00,2013-07-13 19:46:00,
2013-07-13 13:51:00,69.5,46.0,29.79,South,170,6.0,19.0,43,0.00,,BKN001,0.00,VWS V14.00,2013-07-13 19:51:00,
2013-07-13 13:56:00,69.6,46.8,29.79,ESE,123,7.0,19.0,44,0.00,,BKN001,0.00,VWS V14.00,2013-07-13 19:56:00,
2013-07-13 14:01:00,70.5,47.6,29.78,South,177,6.0,19.0,44,0.00,,BKN001,0.00,VWS V14.00,2013-07-13 20:01:00,
2013-07-13 14:06:00,71.3,47.7,29.78,ESE,120,6.0,14.0,43,0.00,,BKN001,0.00,VWS V14.00,2013-07-13 20:06:00,
2013-07-13 14:11:00,71.3,45.8,29.78,SSE,149,6.0,15.0,40,0.00,,BKN001,0.00,VWS V14.00,2013-07-13 20:11:00,
2013-07-13 14:16:00,70.7,45.9,29.77,SE,135,5.0,15.0,41,0.00,,BKN001,0.00,VWS V14.00,2013-07-13 20:16:00,
2013-07-13 14:21:00,72.0,47.7,29.77,SSW,194,5.0,15.0,42,0.00,,BKN001,0.00,VWS V14.00,2013-07-13 20:21:00,
2013-07-13 14:26:00,73.1,47.4,29.77,South,186,4.0,15.0,40,0.00,,BKN001,0.00,VWS V14.00,2013-07-13 20:26:00,
2013-07-13 14:31:00,74.6,48.7,29.76,ESE,106,14.0,18.0,40,0.00,,BKN001,0.00,VWS V14.00,2013-07-13 20:31:00,
2013-07-13 14:36:00,75.0,47.7,29.76,East,84,2.0,8.0,38,0.00,,BKN001,0.00,VWS V14.00,2013-07-13 20:36:00,
2013-07-13 14:41:00,74.3,46.4,29.76,South,179,6.0,13.0,37,0.00,,BKN001,0.00,VWS V14.00,2013-07-13 20:41:00,
2013-07-13 14:46:00,72.9,46.5,29.76,ESE,120,4.0,14.0,39,0.00,,BKN001,0.00,VWS V14.00,2013-07-13 20:46:00,
2013-07-13 14:51:00,72.9,45.8,29.76,ENE,72,1.0,14.0,38,0.00,,BKN001,0.00,VWS V14.00,2013-07-13 20:51:00,
2013-07-13 14:56:00,72.6,46.2,29.76,West,267,15.0,15.0,39,0.00,,BKN001,0.00,VWS V14.00,2013-07-13 20:56:00,
2013-07-13 15:01:00,69.5,47.8,29.77,WSW,248,11.0,19.0,46,0.00,,BKN001,0.00,VWS V14.00,2013-07-13 21:01:00,
2013-07-13 15:06:00,67.5,48.8,29.77,West,272,1.0,11.0,51,0.00,,BKN001,0.00,VWS V14.00,2013-07-13 21:06:00,
2013-07-13 15:11:00,67.0,51.3,29.77,West,271,0.0,11.0,57,0.00,,BKN001,0.00,VWS V14.00,2013-07-13 21:11:00,
2013-07-13 15:16:00,66.7,52.8,29.77,West,273,0.0,11.0,61,0.02,,BKN001,0.02,VWS V14.00,2013-07-13 21:16:00,
2013-07-13 15:21:00,66.2,54.5,29.77,NW,323,1.0,11.0,66,0.02,,BKN001,0.02,VWS V14.00,2013-07-13 21:21:00,
2013-07-13 15:26:00,65.7,54.5,29.77,NW,326,0.0,11.0,67,0.02,,BKN001,0.02,VWS V14.00,2013-07-13 21:26:00,
2013-07-13 15:31:00,65.8,53.7,29.76,NW,326,0.0,11.0,65,0.02,,BKN001,0.02,VWS V14.00,2013-07-13 21:31:00,
2013-07-13 15:36:00,66.5,54.4,29.76,NW,326,0.0,4.0,65,0.02,,BKN001,0.02,VWS V14.00,2013-07-13 21:36:00,
2013-07-13 15:41:00,67.2,53.3,29.76,NW,326,0.0,4.0,61,0.02,,BKN001,0.02,VWS V14.00,2013-07-13 21:41:00,
2013-07-13 15:46:00,68.0,53.6,29.76,NW,326,0.0,4.0,60,0.02,,BKN001,0.02,VWS V14.00,2013-07-13 21:46:00,
2013-07-13 15:51:00,68.6,52.8,29.76,NW,326,0.0,4.0,57,0.02,,BKN001,0.02,VWS V14.00,2013-07-13 21:51:00,
2013-07-13 15:56:00,69.2,53.8,29.76,NW,326,0.0,4.0,58,0.02,,BKN001,0.02,VWS V14.00,2013-07-13 21:56:00,
2013-07-13 16:01:00,69.3,52.5,29.76,WNW,286,5.0,5.0,55,0.02,,BKN001,0.02,VWS V14.00,2013-07-13 22:01:00,
2013-07-13 16:06:00,68.7,49.9,29.76,WNW,287,0.0,2.0,51,0.02,,BKN001,0.02,VWS V14.00,2013-07-13 22:06:00,
2013-07-13 16:11:00,68.6,49.8,29.76,SSW,194,0.0,3.0,51,0.02,,BKN001,0.02,VWS V14.00,2013-07-13 22:11:00,
2013-07-13 16:16:00,69.3,49.3,29.76,SSE,160,3.0,5.0,49,0.02,,BKN001,0.02,VWS V14.00,2013-07-13 22:16:00,
2013-07-13 16:21:00,70.1,47.8,29.75,ENE,58,5.0,9.0,45,0.02,,BKN001,0.02,VWS V14.00,2013-07-13 22:21:00,
2013-07-13 16:26:00,70.4,47.5,29.75,ENE,60,0.0,9.0,44,0.02,,BKN001,0.02,VWS V14.00,2013-07-13 22:26:00,
2013-07-13 16:31:00,70.7,45.9,29.75,ENE,75,0.0,9.0,41,0.02,,BKN001,0.02,VWS V14.00,2013-07-13 22:31:00,
2013-07-13 16:36:00,71.3,48.9,29.75,ESE,120,6.0,7.0,45,0.00,,BKN001,0.02,VWS V14.00,2013-07-13 22:36:00,
2013-07-13 16:41:00,71.3,46.4,29.75,SSE,165,0.0,7.0,41,0.00,,BKN001,0.02,VWS V14.00,2013-07-13 22:41:00,
2013-07-13 16:46:00,71.3,45.8,29.75,SE,133,0.0,7.0,40,0.00,,BKN001,0.02,VWS V14.00,2013-07-13 22:46:00,
2013-07-13 16:51:00,70.9,45.4,29.75,SW,218,7.0,11.0,40,0.00,,BKN001,0.02,VWS V14.00,2013-07-13 22:51:00,
2013-07-13 16:56:00,69.5,46.7,29.76,North,354,3.0,18.0,44,0.00,,BKN001,0.02,VWS V14.00,2013-07-13 22:56:00,
2013-07-13 17:01:00,67.9,50.2,29.76,NNW,329,0.0,18.0,53,0.00,,BKN001,0.02,VWS V14.00,2013-07-13 23:01:00,
2013-07-13 17:06:00,67.6,46.7,29.75,North,349,0.0,8.0,47,0.00,,BKN001,0.02,VWS V14.00,2013-07-13 23:06:00,
2013-07-13 17:11:00,68.0,49.7,29.75,North,351,1.0,8.0,52,0.00,,BKN001,0.02,VWS V14.00,2013-07-13 23:11:00,
2013-07-13 17:16:00,68.5,48.6,29.75,NNE,23,4.0,8.0,49,0.00,,BKN001,0.02,VWS V14.00,2013-07-13 23:16:00,
2013-07-13 17:21:00,68.8,46.0,29.75,NNE,23,1.0,8.0,44,0.00,,BKN001,0.02,VWS V14.00,2013-07-13 23:21:00,
2013-07-13 17:26:00,69.1,45.7,29.75,NNE,23,1.0,8.0,43,0.00,,BKN001,0.02,VWS V14.00,2013-07-13 23:26:00,
2013-07-13 17:31:00,69.1,46.3,29.75,NNE,23,4.0,8.0,44,0.00,,BKN001,0.02,VWS V14.00,2013-07-13 23:31:00,
2013-07-13 17:36:00,68.9,49.5,29.75,NNE,23,0.0,4.0,50,0.01,,BKN001,0.03,VWS V14.00,2013-07-13 23:36:00,
2013-07-13 17:41:00,68.8,50.0,29.74,NNE,23,0.0,4.0,51,0.01,,BKN001,0.03,VWS V14.00,2013-07-13 23:41:00,
2013-07-13 17:46:00,68.6,47.6,29.75,WNW,284,0.0,5.0,47,0.01,,BKN001,0.03,VWS V14.00,2013-07-13 23:46:00,
2013-07-13 17:51:00,68.3,49.5,29.74,WNW,284,0.0,5.0,51,0.01,,BKN001,0.03,VWS V14.00,2013-07-13 23:51:00,
2013-07-13 17:56:00,68.3,51.0,29.74,WNW,284,0.0,5.0,54,0.01,,BKN001,0.03,VWS V14.00,2013-07-13 23:56:00,
2013-07-13 18:01:00,68.0,49.7,29.74,NNE,27,2.0,5.0,52,0.01,,BKN001,0.03,VWS V14.00,2013-07-14 00:01:00,
2013-07-13 18:06:00,67.9,50.2,29.74,NNE,27,4.0,6.0,53,0.01,,BKN001,0.03,VWS V14.00,2013-07-14 00:06:00,
2013-07-13 18:11:00,67.7,50.5,29.74,NNE,27,3.0,6.0,54,0.01,,BKN001,0.03,VWS V14.00,2013-07-14 00:11:00,
2013-07-13 18:16:00,67.6,49.4,29.73,NNE,27,1.0,6.0,52,0.01,,BKN001,0.03,VWS V14.00,2013-07-14 00:16:00,
2013-07-13 18:21:00,67.7,48.9,29.74,NNE,27,0.0,6.0,51,0.01,,BKN001,0.03,VWS V14.00,2013-07-14 00:21:00,
2013-07-13 18:26:00,68.0,50.8,29.73,NNE,27,1.0,6.0,54,0.01,,BKN001,0.03,VWS V14.00,2013-07-14 00:26:00,
2013-07-13 18:31:00,68.1,50.3,29.74,NNE,27,0.0,6.0,53,0.01,,BKN001,0.03,VWS V14.00,2013-07-14 00:31:00,
2013-07-13 18:36:00,68.3,51.0,29.74,NNE,27,1.0,3.0,54,0.01,,BKN001,0.03,VWS V14.00,2013-07-14 00:36:00,
2013-07-13 18:41:00,68.1,48.8,29.74,NNE,27,0.0,3.0,50,0.01,,BKN001,0.03,VWS V14.00,2013-07-14 00:41:00,
2013-07-13 18:46:00,68.3,50.0,29.73,NNE,27,0.0,3.0,52,0.01,,BKN001,0.03,VWS V14.00,2013-07-14 00:46:00,
2013-07-13 18:51:00,68.5,49.7,29.73,NNE,27,3.0,3.0,51,0.01,,BKN001,0.03,VWS V14.00,2013-07-14 00:51:00,
2013-07-13 18:56:00,68.6,50.3,29.73,NNE,27,1.0,3.0,52,0.01,,BKN001,0.03,VWS V14.00,2013-07-14 00:56:00,
2013-07-13 19:01:00,68.6,50.3,29.74,NNE,27,0.0,3.0,52,0.01,,BKN001,0.03,VWS V14.00,2013-07-14 01:01:00,
2013-07-13 19:06:00,68.4,50.1,29.73,NNE,27,3.0,4.0,52,0.00,,BKN001,0.03,VWS V14.00,2013-07-14 01:06:00,
2013-07-13 19:11:00,67.9,49.7,29.73,NNE,27,0.0,4.0,52,0.00,,BKN001,0.03,VWS V14.00,2013-07-14 01:11:00,
2013-07-13 19:16:00,67.5,48.2,29.74,NNE,27,0.0,4.0,50,0.00,,BKN001,0.03,VWS V14.00,2013-07-14 01:16:00,
2013-07-13 19:21:00,67.2,48.5,29.74,NNE,27,0.0,4.0,51,0.00,,BKN001,0.03,VWS V14.00,2013-07-14 01:21:00,
2013-07-13 19:26:00,66.9,49.2,29.74,NNE,27,0.0,4.0,53,0.00,,BKN001,0.03,VWS V14.00,2013-07-14 01:26:00,
2013-07-13 19:31:00,66.6,50.0,29.75,NNE,27,4.0,5.0,55,0.00,,BKN001,0.03,VWS V14.00,2013-07-14 01:31:00,
2013-07-13 19:36:00,66.0,50.8,29.76,SSE,168,9.0,9.0,58,0.00,,BKN001,0.03,VWS V14.00,2013-07-14 01:36:00,
2013-07-13 19:41:00,63.5,50.3,29.76,South,188,14.0,18.0,62,0.00,,BKN001,0.03,VWS V14.00,2013-07-14 01:41:00,
2013-07-13 19:46:00,61.6,50.1,29.77,SW,219,18.0,22.0,66,0.00,,BKN001,0.03,VWS V14.00,2013-07-14 01:46:00,
2013-07-13 19:51:00,60.8,49.8,29.78,SSW,203,15.0,22.0,67,0.00,,BKN001,0.03,VWS V14.00,2013-07-14 01:51:00,
2013-07-13 19:56:00,60.5,49.1,29.78,SSW,197,13.0,22.0,66,0.00,,BKN001,0.03,VWS V14.00,2013-07-14 01:56:00,
2013-07-13 20:01:00,60.2,49.2,29.78,SW,219,12.0,22.0,67,0.00,,BKN001,0.03,VWS V14.00,2013-07-14 02:01:00,
2013-07-13 20:06:00,60.7,49.3,29.78,South,190,15.0,21.0,66,0.00,,BKN001,0.03,VWS V14.00,2013-07-14 02:06:00,
2013-07-13 20:11:00,60.4,49.8,29.79,SSE,159,6.0,21.0,68,0.00,,BKN001,0.03,VWS V14.00,2013-07-14 02:11:00,
2013-07-13 20:16:00,60.2,49.6,29.79,SSW,203,17.0,21.0,68,0.00,,BKN001,0.03,VWS V14.00,2013-07-14 02:16:00,
2013-07-13 20:21:00,59.6,51.0,29.79,South,186,11.0,21.0,73,0.00,,BKN001,0.03,VWS V14.00,2013-07-14 02:21:00,
2013-07-13 20:26:00,59.3,51.0,29.79,South,176,6.0,21.0,74,0.00,,BKN001,0.03,VWS V14.00,2013-07-14 02:26:00,
2013-07-13 20:31:00,59.6,51.0,29.80,SSE,160,9.0,21.0,73,0.00,,BKN001,0.03,VWS V14.00,2013-07-14 02:31:00,
2013-07-13 20:36:00,59.8,51.1,29.80,South,184,10.0,10.0,73,0.00,,BKN001,0.03,VWS V14.00,2013-07-14 02:36:00,
2013-07-13 20:41:00,59.9,51.6,29.81,South,180,6.0,10.0,74,0.00,,BKN001,0.03,VWS V14.00,2013-07-14 02:41:00,
2013-07-13 20:46:00,59.4,51.1,29.81,SSE,167,10.0,13.0,74,0.00,,BKN001,0.03,VWS V14.00,2013-07-14 02:46:00,
2013-07-13 20:51:00,59.3,50.7,29.81,South,176,6.0,13.0,73,0.00,,BKN001,0.03,VWS V14.00,2013-07-14 02:51:00,
2013-07-13 20:56:00,59.0,50.7,29.81,SW,235,4.0,13.0,74,0.00,,BKN001,0.03,VWS V14.00,2013-07-14 02:56:00,
2013-07-13 21:01:00,58.9,50.6,29.82,SW,226,2.0,13.0,74,0.00,,BKN001,0.03,VWS V14.00,2013-07-14 03:01:00,
2013-07-13 21:06:00,59.0,50.4,29.83,SW,226,0.0,3.0,73,0.00,,BKN001,0.03,VWS V14.00,2013-07-14 03:06:00,
2013-07-13 21:11:00,58.9,50.6,29.83,SW,226,1.0,3.0,74,0.00,,BKN001,0.03,VWS V14.00,2013-07-14 03:11:00,
2013-07-13 21:16:00,58.7,51.5,29.83,NNE,18,0.0,5.0,77,0.00,,BKN001,0.03,VWS V14.00,2013-07-14 03:16:00,
2013-07-13 21:21:00,58.5,51.7,29.83,NNE,23,5.0,6.0,78,0.00,,BKN001,0.03,VWS V14.00,2013-07-14 03:21:00,
2013-07-13 21:26:00,58.1,51.6,29.84,NE,38,6.0,9.0,79,0.00,,BKN001,0.03,VWS V14.00,2013-07-14 03:26:00,
2013-07-13 21:31:00,57.9,51.4,29.84,NNE,25,4.0,9.0,79,0.00,,BKN001,0.03,VWS V14.00,2013-07-14 03:31:00,
2013-07-13 21:36:00,57.7,51.2,29.84,NE,34,7.0,9.0,79,0.00,,BKN001,0.03,VWS V14.00,2013-07-14 03:36:00,
2013-07-13 21:41:00,57.6,51.5,29.85,NNE,32,6.0,9.0,80,0.00,,BKN001,0.03,VWS V14.00,2013-07-14 03:41:00,
2013-07-13 21:46:00,57.4,51.3,29.85,NNE,30,6.0,9.0,80,0.00,,BKN001,0.03,VWS V14.00,2013-07-14 03:46:00,
2013-07-13 21:51:00,57.3,51.5,29.85,NNE,32,6.0,9.0,81,0.00,,BKN001,0.03,VWS V14.00,2013-07-14 03:51:00,
2013-07-13 21:56:00,57.1,51.7,29.85,NNE,32,5.0,9.0,82,0.00,,BKN001,0.03,VWS V14.00,2013-07-14 03:56:00,
2013-07-13 22:01:00,56.9,51.5,29.85,NNE,27,5.0,9.0,82,0.00,,BKN001,0.03,VWS V14.00,2013-07-14 04:01:00,
2013-07-13 22:06:00,56.8,51.0,29.85,NNE,28,5.0,9.0,81,0.00,,BKN001,0.03,VWS V14.00,2013-07-14 04:06:00,
2013-07-13 22:11:00,56.9,51.1,29.85,NNE,32,7.0,9.0,81,0.00,,BKN001,0.03,VWS V14.00,2013-07-14 04:11:00,
2013-07-13 22:16:00,56.9,50.8,29.85,NE,39,6.0,9.0,80,0.00,,BKN001,0.03,VWS V14.00,2013-07-14 04:16:00,
2013-07-13 22:21:00,56.8,51.0,29.85,NE,34,6.0,9.0,81,0.00,,BKN001,0.03,VWS V14.00,2013-07-14 04:21:00,
2013-07-13 22:26:00,56.7,50.9,29.85,NE,34,6.0,9.0,81,0.00,,BKN001,0.03,VWS V14.00,2013-07-14 04:26:00,
2013-07-13 22:31:00,56.8,50.7,29.85,NNE,33,3.0,9.0,80,0.00,,BKN001,0.03,VWS V14.00,2013-07-14 04:31:00,
2013-07-13 22:36:00,56.9,50.5,29.86,NNE,32,5.0,8.0,79,0.00,,BKN001,0.03,VWS V14.00,2013-07-14 04:36:00,
2013-07-13 22:41:00,57.0,50.2,29.86,NNE,32,6.0,8.0,78,0.00,,BKN001,0.03,VWS V14.00,2013-07-14 04:41:00,
2013-07-13 22:46:00,57.1,50.3,29.86,NE,34,5.0,9.0,78,0.00,,BKN001,0.03,VWS V14.00,2013-07-14 04:46:00,
2013-07-13 22:51:00,57.3,50.2,29.86,NNE,27,2.0,9.0,77,0.00,,BKN001,0.03,VWS V14.00,2013-07-14 04:51:00,
2013-07-13 22:56:00,57.4,50.3,29.86,NNE,27,3.0,9.0,77,0.00,,BKN001,0.03,VWS V14.00,2013-07-14 04:56:00,
2013-07-13 23:01:00,57.3,50.2,29.86,NNE,27,1.0,9.0,77,0.00,,BKN001,0.03,VWS V14.00,2013-07-14 05:01:00,
2013-07-13 23:06:00,57.3,50.5,29.86,NNE,27,0.0,0.0,78,0.00,,BKN001,0.03,VWS V14.00,2013-07-14 05:06:00,
2013-07-13 23:11:00,57.1,50.7,29.86,North,359,1.0,4.0,79,0.00,,BKN001,0.03,VWS V14.00,2013-07-14 05:11:00,
2013-07-13 23:16:00,56.9,50.5,29.86,North,358,2.0,5.0,79,0.00,,BKN001,0.03,VWS V14.00,2013-07-14 05:16:00,
2013-07-13 23:21:00,56.8,50.4,29.86,NNW,336,1.0,5.0,79,0.00,,BKN001,0.03,VWS V14.00,2013-07-14 05:21:00,
2013-07-13 23:26:00,56.6,50.5,29.86,North,358,0.0,5.0,80,0.00,,BKN001,0.03,VWS V14.00,2013-07-14 05:26:00,
2013-07-13 23:31:00,56.5,50.4,29.86,North,359,0.0,5.0,80,0.00,,BKN001,0.03,VWS V14.00,2013-07-14 05:31:00,
2013-07-13 23:36:00,56.3,50.5,29.86,North,359,0.0,1.0,81,0.00,,BKN001,0.03,VWS V14.00,2013-07-14 05:36:00,
2013-07-13 23:41:00,56.0,50.6,29.86,North,359,0.0,1.0,82,0.00,,BKN001,0.03,VWS V14.00,2013-07-14 05:41:00,
2013-07-13 23:46:00,55.8,50.4,29.86,North,359,0.0,1.0,82,0.00,,BKN001,0.03,VWS V14.00,2013-07-14 05:46:00,
2013-07-13 23:51:00,55.7,50.3,29.86,North,8,3.0,4.0,82,0.00,,BKN001,0.03,VWS V14.00,2013-07-14 05:51:00,
2013-07-13 23:56:00,55.6,50.5,29.86,NNE,14,2.0,5.0,83,0.00,,BKN001,0.03,VWS V14.00,2013-07-14 05:56:00,